EW2973 Weather Reports


Display with metric or nautical units.
time (UTC)temp
F
wind
direction
speed
MPH
gust
MPH
rain 1hr
in
rain 24hr
in
rain mn
in
humidity
%
barometer
mb
20200806134126 66 322 0.0 0.0 0.00 0.00 0.00 83 1015.9
20200806133126 65 322 0.0 0.0 0.00 0.00 0.00 85 1015.9
20200806132125 64 322 0.0 0.0 0.00 0.00 0.00 87 1015.9
20200806131124 64 322 0.0 0.0 0.00 0.00 0.00 87 1015.8
20200806130123 63 322 0.0 2.0 0.00 0.00 0.00 88 1015.8
20200806125122 63 322 0.0 3.0 0.00 0.00 0.00 89 1015.8
20200806124121 62 322 0.0 3.0 0.00 0.00 0.00 91 1016.2
20200806123121 61 322 0.0 2.0 0.00 0.00 0.00 91 1015.8
20200806122133 61 322 0.0 1.0 0.00 0.00 0.00 92 1015.8
20200806121120 60 322 1.0 1.0 0.00 0.00 0.00 92 1015.8
20200806120117 60 322 0.0 0.0 0.00 0.00 0.00 92 1015.5
20200806115115 60 322 0.0 0.0 0.00 0.00 0.00 92 1015.5
20200806114114 60 322 0.0 0.0 0.00 0.00 0.00 92 1015.8
20200806113118 59 322 0.0 0.0 0.00 0.00 0.00 92 1015.5
20200806112114 59 322 0.0 0.0 0.00 0.00 0.00 92 1015.5
20200806111112 59 322 0.0 0.0 0.00 0.00 0.00 92 1015.5
20200806110111 59 322 0.0 0.0 0.00 0.00 0.00 91 1015.9
20200806105111 59 322 0.0 0.0 0.00 0.00 0.00 91 1015.9
20200806104109 59 322 0.0 0.0 0.00 0.00 0.00 91 1015.6
20200806103106 59 322 0.0 0.0 0.00 0.00 0.00 90 1015.6
20200806102103 60 322 0.0 0.0 0.00 0.00 0.00 90 1015.6
20200806101102 60 322 0.0 0.0 0.00 0.00 0.00 89 1015.3
20200806100101 60 322 0.0 0.0 0.00 0.00 0.00 89 1015.3
20200806095100 60 322 0.0 0.0 0.00 0.00 0.00 89 1015.3
20200806094104 60 322 0.0 0.0 0.00 0.00 0.00 89 1015.3
20200806093059 60 322 0.0 0.0 0.00 0.00 0.00 88 1015.3
20200806092058 61 322 0.0 0.0 0.00 0.00 0.00 88 1015.4
20200806091058 61 322 0.0 0.0 0.00 0.00 0.00 88 1015.3
20200806090056 61 322 0.0 0.0 0.00 0.00 0.00 87 1015.3
20200806085056 61 322 0.0 0.0 0.00 0.00 0.00 87 1015.3
20200806084055 61 322 0.0 0.0 0.00 0.00 0.00 86 1015.0
20200806083053 62 322 0.0 0.0 0.00 0.00 0.00 86 1015.3
20200806082053 62 322 0.0 0.0 0.00 0.00 0.00 85 1015.4
20200806081052 62 322 0.0 0.0 0.00 0.00 0.00 85 1015.4
20200806080053 62 322 0.0 0.0 0.00 0.00 0.00 85 1015.0
20200806075050 62 322 0.0 0.0 0.00 0.00 0.00 85 1015.0
20200806074049 61 322 0.0 0.0 0.00 0.00 0.00 84 1015.0
20200806073050 61 322 0.0 0.0 0.00 0.00 0.00 84 1015.0
20200806072049 61 322 0.0 0.0 0.00 0.00 0.00 83 1015.0
20200806071052 60 322 0.0 0.0 0.00 0.00 0.00 83 1015.3
20200806070046 60 322 0.0 0.0 0.00 0.00 0.00 83 1015.3
20200806065046 60 322 0.0 0.0 0.00 0.00 0.00 84 1015.2
20200806064046 60 322 0.0 0.0 0.00 0.00 0.00 85 1015.3
20200806063040 60 322 0.0 0.0 0.00 0.00 0.00 85 1015.3
20200806062036 60 322 0.0 0.0 0.00 0.00 0.00 86 1015.2
20200806061036 59 322 0.0 0.0 0.00 0.00 0.00 85 1015.6
20200806060035 59 322 0.0 0.0 0.00 0.00 0.00 86 1015.2
20200806055036 59 322 0.0 0.0 0.00 0.00 0.00 86 1015.2
20200806054033 59 322 0.0 0.0 0.00 0.00 0.00 87 1015.5
20200806053033 59 322 0.0 0.0 0.00 0.00 0.00 86 1015.2
20200806052032 60 322 0.0 0.0 0.00 0.00 0.00 86 1015.2
20200806051033 60 322 0.0 0.0 0.00 0.00 0.00 86 1015.2
20200806050029 60 322 0.0 0.0 0.00 0.00 0.00 86 1015.2
20200806045027 61 322 0.0 0.0 0.00 0.00 0.00 85 1015.2
20200806044027 61 322 0.0 0.0 0.00 0.00 0.00 84 1015.2
20200806043001 61 322 0.0 0.0 0.00 0.00 0.00 85 1015.2
20200806041958 61 322 0.0 0.0 0.00 0.00 0.00 86 1015.2
20200806040957 61 322 0.0 0.0 0.00 0.00 0.00 86 1015.2
20200806035938 61 322 0.0 0.0 0.00 0.00 0.00 86 1015.2
20200806034939 61 322 0.0 0.0 0.00 0.00 0.00 85 1015.1
20200806033937 61 322 0.0 0.0 0.00 0.00 0.00 85 1015.2
20200806032936 62 322 0.0 0.0 0.00 0.00 0.00 84 1015.1
20200806031939 62 322 0.0 0.0 0.00 0.00 0.00 84 1015.1
20200806030939 62 322 0.0 0.0 0.00 0.00 0.00 84 1015.1
20200806025935 63 322 0.0 0.0 0.00 0.00 0.00 84 1015.1
20200806024935 63 322 0.0 0.0 0.00 0.00 0.00 84 1015.1
20200806023932 63 322 0.0 0.0 0.00 0.00 0.00 83 1015.1
20200806022930 63 322 0.0 0.0 0.00 0.00 0.00 81 1014.7
20200806021929 64 322 0.0 0.0 0.00 0.00 0.00 80 1014.7
20200806020928 64 322 0.0 0.0 0.00 0.00 0.00 79 1014.7
20200806015927 65 322 0.0 0.0 0.00 0.00 0.00 77 1014.7
20200806014926 66 322 0.0 0.0 0.00 0.00 0.00 77 1014.4
20200806013923 67 322 0.0 0.0 0.00 0.00 0.00 76 1014.4
20200806012922 67 322 0.0 0.0 0.00 0.00 0.00 73 1014.4
20200806011922 67 322 0.0 0.0 0.00 0.00 0.00 71 1014.3
20200806010921 68 322 0.0 0.0 0.00 0.00 0.00 72 1014.3
20200806005921 68 322 0.0 0.0 0.00 0.00 0.00 71 1014.3
20200806004920 69 322 0.0 0.0 0.00 0.00 0.00 72 1014.3
20200806003917 70 322 0.0 0.0 0.00 0.00 0.00 70 1014.7
20200806002916 70 322 0.0 0.0 0.00 0.00 0.00 67 1014.3
20200806001915 71 322 0.0 0.0 0.00 0.00 0.00 65 1014.3
20200806000914 71 322 0.0 0.0 0.00 0.00 0.00 63 1014.7
20200805235912 72 322 0.0 0.0 0.00 0.00 0.00 63 1014.7
20200805234910 72 322 0.0 1.0 0.00 0.00 0.00 61 1014.6
20200805233909 72 322 0.0 1.0 0.00 0.00 0.00 60 1014.6
20200805232908 72 322 0.0 0.0 0.00 0.00 0.00 60 1014.6
20200805231908 72 322 0.0 4.0 0.00 0.00 0.00 59 1014.3
20200805230906 73 322 0.0 4.0 0.00 0.00 0.00 58 1014.3
20200805225905 74 317 0.0 4.0 0.00 0.00 0.00 58 1014.7
20200805224904 74 225 0.0 0.0 0.00 0.00 0.00 61 1014.7
20200805223903 74 224 0.0 2.0 0.00 0.00 0.00 57 1014.7
20200805222902 74 224 0.0 2.0 0.00 0.00 0.00 54 1014.7
20200805221901 75 225 0.0 4.0 0.00 0.00 0.00 54 1014.7
20200805220900 75 223 2.0 4.0 0.00 0.00 0.00 53 1014.7
20200805215900 75 185 0.0 5.0 0.00 0.00 0.00 53 1015.1
20200805214858 75 234 0.0 9.0 0.00 0.00 0.00 51 1015.1
20200805213901 76 200 1.0 9.0 0.00 0.00 0.00 52 1015.1
20200805212856 77 237 2.0 5.0 0.00 0.00 0.00 50 1015.2
20200805211854 76 239 0.0 5.0 0.00 0.00 0.00 54 1015.2
20200805210853 76 239 4.0 5.0 0.00 0.00 0.00 51 1015.1
20200805205852 75 265 0.0 1.0 0.00 0.00 0.00 56 1015.1
20200805204853 75 274 0.0 3.0 0.00 0.00 0.00 56 1015.1
20200805203850 75 274 0.0 3.0 0.00 0.00 0.00 54 1015.1
20200805202849 75 213 1.0 2.0 0.00 0.00 0.00 56 1015.2
20200805201849 76 212 0.0 4.0 0.00 0.00 0.00 55 1015.2
20200805200848 76 219 0.0 4.0 0.00 0.00 0.00 50 1015.5
20200805195847 76 201 1.0 3.0 0.00 0.00 0.00 55 1015.5
20200805194846 75 232 1.0 4.0 0.00 0.00 0.00 57 1015.5
20200805193845 76 232 0.0 5.0 0.00 0.00 0.00 53 1015.5
20200805192841 76 223 0.0 5.0 0.00 0.00 0.00 54 1015.9
20200805191839 76 236 0.0 11.0 0.00 0.00 0.00 56 1015.9
20200805190839 75 36 0.0 11.0 0.00 0.00 0.00 57 1015.9
20200805185838 75 235 3.0 7.0 0.00 0.00 0.00 56 1015.9
20200805184834 75 217 0.0 5.0 0.00 0.00 0.00 53 1015.9
20200805183831 75 200 2.0 8.0 0.00 0.00 0.00 57 1015.9
20200805182830 75 176 3.0 8.0 0.00 0.00 0.00 56 1015.9
20200805181829 74 216 0.0 8.0 0.00 0.01 0.00 60 1016.2
20200805180828 74 213 0.0 3.0 0.00 0.01 0.00 56 1016.2
20200805175827 74 250 1.0 4.0 0.00 0.01 0.00 56 1016.2
20200805174827 74 259 2.0 4.0 0.00 0.01 0.00 56 1016.2
20200805173825 74 207 0.0 3.0 0.00 0.01 0.00 58 1016.2
20200805172824 72 346 0.0 5.0 0.00 0.01 0.00 57 1016.2
20200805171822 73 346 0.0 7.0 0.00 0.01 0.00 60 1016.2
20200805170822 74 222 2.0 7.0 0.00 0.01 0.00 56 1016.2
20200805165821 72 227 1.0 7.0 0.00 0.01 0.00 60 1016.2
20200805164820 72 244 0.0 4.0 0.00 0.01 0.00 61 1016.2
20200805163820 72 239 0.0 6.0 0.00 0.01 0.00 61 1016.2
20200805162818 72 257 3.0 6.0 0.00 0.02 0.00 60 1016.2
20200805161818 71 245 1.0 5.0 0.00 0.02 0.00 59 1016.2
20200805160818 71 217 1.0 7.0 0.00 0.05 0.00 63 1016.2
20200805155815 70 215 0.0 7.0 0.00 0.05 0.00 63 1016.2
20200805154815 70 171 3.0 5.0 0.00 0.05 0.00 63 1016.2
20200805153814 69 236 0.0 4.0 0.00 0.05 0.00 67 1016.2
20200805152814 69 235 0.0 4.0 0.00 0.05 0.00 68 1016.2
20200805151825 69 355 0.0 1.0 0.00 0.05 0.00 68 1016.2
20200805150807 68 355 0.0 5.0 0.00 0.05 0.00 71 1016.2
20200805145806 67 11 4.0 5.0 0.00 0.05 0.00 68 1016.2
20200805144805 66 243 3.0 4.0 0.00 0.05 0.00 74 1015.8
20200805143804 65 16 0.0 1.0 0.00 0.05 0.00 80 1015.8
20200805142803 64 16 0.0 1.0 0.00 0.05 0.00 80 1015.8
20200805141802 64 16 0.0 4.0 0.00 0.05 0.00 81 1015.8
20200805140801 63 16 0.0 4.0 0.00 0.05 0.00 82 1015.8
20200805135800 62 16 0.0 1.0 0.00 0.05 0.00 84 1015.8
20200805134759 62 16 0.0 0.0 0.00 0.05 0.00 86 1016.1